Voltar ao catálogo

GLOBALSTAR M081

AtivoComunicaçõesLEO
NORAD 37743·PAYLOAD·🇺🇸 United States

Lançado Jul 13, 2011 de Baikonur Cosmodrome

Loading…

Próximas Passagens (próximas 24 horas)

TLE

AtualizadoSource: Space-Track

Época: Sep 14, 2026, 13:24 UTC

1 37743U 11033E   26257.55846372 -.00000092  00000-0  65310-4 0  9995
2 37743  51.9952 283.5370 0000266 114.6979  51.8263 12.62266271701228

Acompanhe GLOBALSTAR M081 em tempo real com AllMySat

Download on the App Store